Location: Bishop�s Knoyle
(51.0728°N, 2.1714°W)
Time: 14:27:19
(UTC+00:00)

NOSS 3-4 (C) - Pass Details

Date: 22 January 2021
Orbit: 878 x 1335 km, 63.4° (Epoch: 16 February)

Event Time Altitude Azimuth Distance (km) Brightness Sun altitude
Rises 18:14:42 0° 267° (W) 3,526 8.2 -14.2°
Reaches altitude 10° 18:17:23 10° 277° (W) 2,625 6.9 -14.6°
Maximum altitude 18:22:54 34° 341° (NNW) 1,563 4.6 -15.4°
Enters shadow 18:27:48 15° 40° (NE) 2,521 5.2 -16.2°
